Weather History for Marrakech, Morocco

Change the Weather History Date:

Friday, January 11, 2013

  Actual Average Record
Temperature  
Mean Temperature 54 °F -  
Max Temperature 72 °F 64 °F - ()
Min Temperature 35 °F 43 °F - ()
Degree Days  
Heating Degree Days 12    
Growing Degree Days 4 (Base 50)    
Moisture  
Dew Point 26 °F    
Average Humidity 40    
Maximum Humidity 70    
Minimum Humidity 7    
Precipitation  
Precipitation 0.00 in 0.05 in - ()
Sea Level Pressure  
Sea Level Pressure 30.21 in    
Wind  
Wind Speed 2 mph ()    
Max Wind Speed 7 mph    
Max Gust Speed -    
Visibility 6.0 miles    
Events      
T = Trace of Precipitation, MM = Missing Value Source: Averaged Metar Reports

Daily Weather History Graph

Daily Weather History Graph

Search for Another Location

Airport:

Trip Planner

Search our weather history database for the weather conditions in past years. The results will help you decide how hot, cold, wet, or windy it might be!

Date:

Astronomy

Jan. 11, 2013 Rise Set
Actual Time 7:32 AM WET 5:47 PM WET
Civil Twilight 7:06 AM WET 6:14 PM WET
Nautical Twilight 6:36 AM WET 6:44 PM WET
Astronomical Twilight 6:06 AM WET 7:13 PM WET
Moon 6:56 AM WET (1/11) 5:46 PM WET (1/11)
Length of Visible Light 11h 08m
Length of Day
10h 15m
Waning Crescent, 0% of the Moon is Illuminated
Jan 11
Waning Crescent
Jan 11
New
Jan 18
First Quarter
Jan 27
Full
Feb 3
Last Quarter

Hourly Weather History & Observations

Time (WET) Temp. Windchill Dew Point Humidity Pressure Visibility Wind Dir Wind Speed Gust Speed Precip Events Conditions
12:00 AM 49 °F - 26 °F 28% 30.27 in 6 mi SE 2.3 mph - -  
12:00 AM 50.0 °F - 26.6 °F 40% 30.24 in - SSE 2.3 mph - N/A   Clear
12:30 AM 44.6 °F 43.1 °F 26.6 °F 49% 30.24 in - ESE 3.5 mph - N/A   Clear
1:00 AM 42.8 °F 40.1 °F 28.4 °F 57% 30.21 in - East 4.6 mph - N/A   Clear
1:30 AM 39.2 °F 37.0 °F 28.4 °F 65% 30.21 in - East 3.5 mph - N/A   Clear
2:00 AM 41.0 °F 39.0 °F 28.4 °F 61% 30.21 in - East 3.5 mph - N/A   Clear
2:30 AM 39.2 °F - 28.4 °F 65% 30.21 in - Variable 2.3 mph - N/A   Clear
3:00 AM 39 °F - 28 °F 52% 30.27 in 6 mi ESE 3.5 mph - -  
3:00 AM 39.2 °F 37.0 °F 28.4 °F 65% 30.21 in - ESE 3.5 mph - N/A   Clear
3:30 AM 39.2 °F 37.0 °F 28.4 °F 65% 30.21 in - East 3.5 mph - N/A   Clear
4:00 AM 39.2 °F 35.9 °F 28.4 °F 65% 30.21 in - East 4.6 mph - N/A   Clear
4:30 AM 37.4 °F 34.9 °F 26.6 °F 65% 30.21 in - East 3.5 mph - N/A   Clear
5:00 AM 37.4 °F - 28.4 °F 70% 30.21 in - SE 1.2 mph - N/A   Clear
5:30 AM 37.4 °F - 28.4 °F 70% 30.21 in - Calm Calm - N/A   Clear
6:00 AM 38 °F - 28 °F 57% 30.27 in 6 mi Calm Calm - -  
6:00 AM 37.4 °F - 28.4 °F 70% 30.21 in - Calm Calm - N/A   Clear
6:30 AM 37.4 °F - 28.4 °F 70% 30.21 in - East 2.3 mph - N/A   Clear
7:00 AM 35.6 °F 31.7 °F 26.6 °F 70% 30.21 in - East 4.6 mph - N/A   Clear
7:30 AM 37.4 °F - 26.6 °F 65% 30.21 in - East 2.3 mph - N/A   Clear
8:00 AM 35.6 °F 30.7 °F 26.6 °F 70% 30.21 in - East 5.8 mph - N/A   Clear
8:30 AM 39.2 °F - 28.4 °F 65% 30.24 in - Variable 2.3 mph - N/A   Clear
9:00 AM 44 °F - 28 °F 41% 30.28 in 6 mi Calm Calm - -   Clear
9:00 AM 44.6 °F - 28.4 °F 53% 30.24 in - Calm Calm - N/A   Clear
9:30 AM 51.8 °F - 28.4 °F 41% 30.24 in - East 1.2 mph - N/A   Clear
10:00 AM 55.4 °F - 26.6 °F 33% 30.24 in - Calm Calm - N/A   Clear
10:30 AM 60.8 °F - 26.6 °F 27% 30.24 in - Calm Calm - N/A   Clear
11:00 AM 62.6 °F - 28.4 °F 27% 30.24 in - Variable 1.2 mph - N/A   Clear
11:30 AM 62.6 °F - 30.2 °F 30% 30.24 in - Calm Calm - N/A   Clear
12:00 PM 64 °F - 29 °F 16% 30.20 in 6 mi Calm Calm - -   Clear
12:00 PM 64.4 °F - 28.4 °F 26% 30.21 in - Calm Calm - N/A   Clear
12:30 PM 66.2 °F - 26.6 °F 23% 30.21 in - Calm Calm - N/A   Clear
1:00 PM 66.2 °F - 28.4 °F 24% 30.21 in - Calm Calm - N/A   Clear
1:30 PM 68.0 °F - 21.2 °F 17% 30.18 in - Calm Calm - N/A   Clear
2:00 PM 69.8 °F - 24.8 °F 18% 30.18 in - Calm Calm - N/A   Clear
2:30 PM 69.8 °F - 23.0 °F 17% 30.18 in - Calm Calm - N/A   Clear
3:00 PM 72 °F - 22 °F 7% 30.14 in - Calm Calm - -  
3:00 PM 71.6 °F - 21.2 °F 15% 30.18 in - Calm Calm - N/A   Clear
3:30 PM 71.6 °F - 21.2 °F 15% 30.18 in - Calm Calm - N/A   Clear
4:00 PM 71.6 °F - 23.0 °F 16% 30.18 in - Calm Calm - N/A   Clear
4:30 PM 71.6 °F - 19.4 °F 14% 30.18 in - North 6.9 mph - N/A   Clear
5:00 PM 69.8 °F - 19.4 °F 15% 30.18 in - North 4.6 mph - N/A   Clear
5:30 PM 68.0 °F - 19.4 °F 16% 30.18 in - North 3.5 mph - N/A   Clear
6:00 PM 65 °F - 20 °F 9% 30.16 in 6 mi NNE 3.5 mph - -  
6:00 PM 66.2 °F - 19.4 °F 17% 30.18 in - NNE 3.5 mph - N/A   Clear
6:30 PM 62.6 °F - 21.2 °F 20% 30.18 in - NNE 4.6 mph - N/A   Clear
7:00 PM 60.8 °F - 23.0 °F 23% 30.18 in - NE 4.6 mph - N/A   Clear
7:30 PM 59.0 °F - 23.0 °F 25% 30.18 in - East 3.5 mph - N/A   Clear
8:00 PM 57.2 °F - 24.8 °F 29% 30.18 in - Variable 1.2 mph - N/A   Clear
8:30 PM 55.4 °F - 24.8 °F 31% 30.21 in - East 5.8 mph - N/A   Clear
9:00 PM 53 °F - 27 °F 24% 30.22 in 6 mi East 6.9 mph - -  
9:00 PM 53.6 °F - 26.6 °F 35% 30.21 in - East 6.9 mph - N/A   Clear
9:30 PM 50.0 °F - 26.6 °F 40% 30.21 in - East 5.8 mph - N/A   Clear
10:00 PM 50.0 °F - 28.4 °F 43% 30.21 in - East 4.6 mph - N/A   Clear
10:30 PM 48.2 °F - 28.4 °F 46% 30.21 in - WSW 3.5 mph - N/A   Clear
11:00 PM 46.4 °F 45.2 °F 28.4 °F 50% 30.24 in - SSE 3.5 mph - N/A   Clear
11:30 PM 46.4 °F - 26.6 °F 46% 30.21 in - ESE 2.3 mph - N/A   Clear
11:47 PM 44 °F - 28 °F 40% 30.27 in 6 mi SE 3.5 mph - -